#timestamp,LO_Frequency,Hit,StdDev 
1611730815.1,286047002.1,N
1611730835.9,286046999.7,N
1611730855.7,286046999.7,N
1611730875.5,286047001.9,N
1611730895.4,286047002.2,N
1611730915.2,286047001.4,N
1611730935.0,286047002.3,N
1611730935.9,286047002.3,N
1611730955.8,286047002.5,N
1611730975.6,286047002.4,N
1611730995.5,286047001.9,N
1611731015.3,286047002.0,N
1611731035.1,286047002.2,N
1611731055.9,286047002.2,N
1611731075.7,286047002.7,N
1611731095.5,286047002.6,N
1611731115.4,286047001.7,N
1611731135.2,286047002.5,N
1611731155.1,286047002.5,N
1611731156.0,286047002.5,N
1611731175.8,286047002.8,N
1611731195.6,286047002.2,N
1611731215.5,286047002.6,N
1611731235.3,286047002.2,N
1611731255.1,286047002.8,N
1611731275.9,286047002.4,N
1611731295.7,286047002.2,N
1611731315.6,286047002.2,N
1611731335.4,286047001.6,N
1611731355.2,286047002.1,N
1611731375.1,286047002.0,N
1611731376.0,286047002.0,N
1611731395.8,286047002.1,Y
1611731415.7,286047000.5,P
1611731435.5,286047000.6,N
1611731455.3,286047000.4,N
1611731475.2,286047000.4,N
1611731495.0,286047000.0,N
1611731495.9,286047000.0,N
1611731515.7,286047000.0,N
1611731535.6,286046999.9,N
1611731555.4,286047001.0,N
1611731575.3,286047000.5,N
1611731595.1,286047000.9,N
1611731615.8,286047002.4,Y
1611731635.7,286047001.1,P
1611731655.5,286047000.5,N
1611731675.4,286047000.7,N
1611731695.2,286046998.1,Y
1611731715.0,286047001.1,P
1611731715.9,286047001.1,P
1611731735.8,286046998.1,P
1611731755.6,286047000.9,N
1611731775.4,286047001.0,N
1611731795.3,286047000.9,N
1611731815.1,286047001.1,N
1611731835.9,286047000.6,N
1611731855.7,286047000.1,N
1611731875.5,286047000.7,N
1611731895.4,286047000.0,N
1611731915.2,286046999.9,N
1611731935.1,286047000.3,N
1611731936.0,286047000.3,N
1611731955.8,286047001.1,N
1611731975.6,286047000.6,N
1611731995.5,286046999.8,N
1611732015.3,286047000.5,N
1611732035.1,286047000.4,N
1611732055.9,286046998.2,N
1611732075.7,286046998.7,N
1611732095.6,286046998.7,N
1611732115.4,286046998.4,N
1611732135.2,286046999.2,N
1611732155.1,286046996.5,Y
1611732156.0,286046996.5,P
1611732175.8,286046998.8,N
1611732195.6,286046998.3,N
1611732215.5,286046999.0,N
1611732235.3,286046996.5,Y
1611732255.2,286047000.0,P
1611732275.0,286047000.0,N
1611732275.9,286047000.0,N
1611732295.7,286046999.8,N
1611732315.6,286047000.0,N
1611732335.4,286046999.7,N
1611732355.3,286047000.0,N
1611732375.1,286047000.6,N
1611732376.0,286047000.6,N
1611732395.8,286047000.6,N
1611732415.7,286047000.1,N
1611732435.5,286047000.6,N
1611732455.3,286047000.7,N
1611732475.2,286047000.4,N
1611732495.0,286047000.1,N
1611732495.9,286047000.1,N
1611732515.8,286046999.9,N
1611732535.6,286047000.2,N
1611732555.4,286046999.7,N
1611732575.3,286047001.0,N
1611732595.1,286047002.3,Y
1611732615.9,286047002.4,P
1611732635.7,286046999.7,N
1611732655.5,286046999.7,N
1611732675.4,286047002.4,N
1611732695.2,286047002.8,N
1611732715.0,286047002.6,N
1611732715.9,286047002.6,N
1611732735.8,286047002.0,N
1611732755.6,286047002.1,N
1611732775.5,286047002.1,N
1611732795.3,286047001.9,N
1611732815.1,286047001.9,N
1611732835.9,286047002.1,N
1611732855.7,286047002.4,N
1611732875.5,286047002.2,N
1611732895.4,286047001.7,N
1611732915.2,286047002.0,N
1611732935.1,286047001.7,N
1611732936.0,286047001.7,N
1611732955.8,286047002.5,N
1611732975.6,286047001.7,N
1611732995.5,286047004.4,Y
1611733015.3,286047000.1,P
1611733035.2,286046999.7,N
1611733055.9,286047000.0,N
1611733075.7,286046999.9,N
1611733095.6,286047002.7,Y
1611733115.4,286046999.7,P
1611733135.2,286047000.0,N
1611733155.1,286047000.2,N
1611733156.0,286047000.2,N
1611733175.8,286047000.2,N
1611733195.7,286047001.0,Y
1611733215.5,286047000.3,P
1611733235.3,286047001.0,P
1611733255.2,286046999.8,N
1611733275.0,286047000.2,N
1611733275.9,286047000.2,N
1611733295.8,286047000.9,N
1611733315.6,286047000.6,N
1611733335.4,286047000.3,N
1611733355.3,286047000.9,N
1611733375.1,286047000.4,N
1611733395.8,286046999.9,N
1611733415.7,286047000.9,N
1611733435.5,286047000.4,N
1611733455.4,286047000.2,N
1611733475.2,286047002.8,Y
1611733495.0,286047001.0,P
1611733495.9,286047001.0,P
1611733515.8,286047000.3,N
1611733535.6,286047000.9,N
1611733555.4,286047000.5,N
1611733575.3,286047000.8,N
1611733595.1,286047000.6,N
1611733615.9,286046999.9,N
1611733635.7,286047000.5,N
1611733655.5,286046999.7,N
1611733675.4,286047000.2,N
1611733695.2,286046999.7,N
1611733715.0,286047000.4,N
1611733716.0,286047000.4,N
1611733735.8,286047000.1,N
1611733755.6,286047002.7,Y
1611733775.5,286047000.0,P
1611733795.3,286047000.4,N
1611733815.1,286047000.4,N
1611733835.9,286047001.0,Y
1611733855.7,286047001.0,P
1611733875.6,286046999.9,N
1611733895.4,286047000.9,N
1611733915.2,286047000.5,N
1611733935.1,286047000.5,N
1611733936.0,286047000.5,N
1611733955.8,286047001.0,N
1611733975.7,286046999.9,N
1611733995.5,286046999.8,N
1611734015.3,286047001.0,N
1611734035.2,286047000.6,N
1611734055.9,286047002.7,Y
1611734075.7,286047000.0,P
1611734095.6,286047000.3,N
1611734115.4,286046999.8,N
1611734135.3,286047000.9,Y
1611734155.1,286047000.0,P
1611734156.0,286047000.0,N
1611734175.8,286047000.0,N
1611734195.7,286047000.5,Y
1611734215.5,286046999.8,P
1611734235.4,286047002.5,P
1611734255.2,286047002.4,N
1611734275.0,286047002.6,N
1611734275.9,286047002.6,N
1611734295.8,286047002.2,N
1611734315.6,286047002.3,N
1611734335.4,286047002.7,N
1611734355.3,286047002.8,N
1611734375.1,286047002.3,N
1611734395.9,286047002.4,N
